Location: Middelsbur
(53.6609°N, 7.5020°E)
Time: 23:57:19
(UTC+00:00)

Cosmos 2333 Rocket - Pass Details

Date: 06 July 2020
Orbit: 837 x 864 km, 70.8° (Epoch: 03 August)

Event Time Altitude Azimuth Distance (km) Brightness Sun altitude
Rises 22:12:43 0° 228° (SW) 3,403 5.1 -11.7°
Reaches altitude 10° 22:15:13 10° 233° (SW) 2,475 4.5 -11.8°
Maximum altitude 22:20:47 53° 310° (NW) 1,044 3.1 -12.1°
Drops below altitude 10° 22:26:25 10° 28° (NNE) 2,506 5.4 -12.3°
Sets 22:28:58 0° 33° (NNE) 3,449 6.0 -12.5°
